Time,TemperatureF,DewpointF,PressureIn,WindDirection,WindDirectionDegrees,WindSpeedMPH,WindSpeedGustMPH,Humidity,HourlyPrecipIn,Conditions,Clouds,dailyrainin,SoftwareType,DateUTC
2013-09-09 00:03:00,58.0,52.0,30.06,ESE,119,1.0,6.0,80,0.00,,,0.00,,2013-09-09 04:03:00,
2013-09-09 00:14:00,57.0,51.0,30.07,ESE,122,0.0,4.0,81,0.00,,,0.00,,2013-09-09 04:14:00,
2013-09-09 00:24:00,58.0,52.0,30.06,ESE,119,1.0,6.0,80,0.00,,,0.00,,2013-09-09 04:24:00,
2013-09-09 00:33:00,58.0,52.0,30.06,ESE,119,1.0,6.0,80,0.00,,,0.00,,2013-09-09 04:33:00,
2013-09-09 00:44:00,58.0,52.0,30.06,ESE,119,1.0,6.0,80,0.00,,,0.00,,2013-09-09 04:44:00,
2013-09-09 00:54:00,58.0,52.0,30.06,ESE,119,1.0,6.0,80,0.00,,,0.00,,2013-09-09 04:54:00,
2013-09-09 01:43:00,57.0,52.0,30.07,SE,140,0.0,4.0,82,0.00,,,0.00,,2013-09-09 05:43:00,
2013-09-09 01:53:00,57.0,52.0,30.08,SE,142,0.0,2.0,83,0.00,,,0.00,,2013-09-09 05:53:00,
2013-09-09 02:02:00,57.0,52.0,30.08,SE,142,0.0,2.0,83,0.00,,,0.00,,2013-09-09 06:02:00,
2013-09-09 02:12:00,57.0,52.0,30.08,SE,142,0.0,2.0,83,0.00,,,0.00,,2013-09-09 06:12:00,
2013-09-09 02:22:00,56.0,52.0,30.07,ESE,123,0.0,1.0,86,0.00,,,0.00,,2013-09-09 06:22:00,
2013-09-09 02:42:00,57.0,53.0,30.07,ESE,119,0.0,3.0,86,0.00,,,0.00,,2013-09-09 06:42:00,
2013-09-09 02:52:00,56.0,52.0,30.07,North,0,0.0,0.0,86,0.00,,,0.00,,2013-09-09 06:52:00,
2013-09-09 03:11:00,56.0,52.0,30.07,SSE,148,0.0,1.0,88,0.00,,,0.00,,2013-09-09 07:11:00,
2013-09-09 03:22:00,57.0,53.0,30.07,SE,145,0.0,2.0,87,0.00,,,0.00,,2013-09-09 07:22:00,
2013-09-09 03:43:00,58.0,54.0,30.07,SE,135,0.0,3.0,86,0.00,,,0.00,,2013-09-09 07:43:00,
2013-09-09 03:52:00,58.0,54.0,30.07,SE,135,0.0,3.0,86,0.00,,,0.00,,2013-09-09 07:52:00,
2013-09-09 04:12:00,58.0,54.0,30.06,SSE,148,0.0,3.0,87,0.00,,,0.00,,2013-09-09 08:12:00,
2013-09-09 04:22:00,58.0,54.0,30.06,SSE,148,0.0,3.0,87,0.00,,,0.00,,2013-09-09 08:22:00,
2013-09-09 04:33:00,59.0,55.0,30.06,ESE,121,0.0,3.0,86,0.00,,,0.00,,2013-09-09 08:33:00,
2013-09-09 04:52:00,59.0,55.0,30.06,ESE,121,0.0,3.0,86,0.00,,,0.00,,2013-09-09 08:52:00,
2013-09-09 05:02:00,59.0,55.0,30.06,ESE,121,0.0,3.0,86,0.00,,,0.00,,2013-09-09 09:02:00,
2013-09-09 05:12:00,59.0,55.0,30.06,ESE,121,0.0,3.0,86,0.00,,,0.00,,2013-09-09 09:12:00,
2013-09-09 05:22:00,59.0,55.0,30.06,ESE,121,0.0,3.0,86,0.00,,,0.00,,2013-09-09 09:22:00,
2013-09-09 05:54:00,60.0,56.0,30.05,SE,136,2.0,6.0,86,0.00,,,0.00,,2013-09-09 09:54:00,
2013-09-09 06:03:00,60.0,56.0,30.05,SE,136,2.0,6.0,86,0.00,,,0.00,,2013-09-09 10:03:00,
2013-09-09 06:12:00,60.0,56.0,30.05,SE,136,2.0,6.0,86,0.00,,,0.00,,2013-09-09 10:12:00,
2013-09-09 06:23:00,60.0,56.0,30.05,SE,136,2.0,6.0,86,0.00,,,0.00,,2013-09-09 10:23:00,
2013-09-09 06:43:00,60.0,56.0,30.04,SE,145,2.0,6.0,86,0.00,,,0.00,,2013-09-09 10:43:00,
2013-09-09 06:53:00,60.0,56.0,30.04,SE,145,1.0,4.0,87,0.00,,,0.00,,2013-09-09 10:53:00,
2013-09-09 07:12:00,60.0,56.0,30.04,SE,145,2.0,5.0,86,0.00,,,0.00,,2013-09-09 11:12:00,
2013-09-09 07:22:00,60.0,56.0,30.05,SE,145,2.0,6.0,86,0.00,,,0.00,,2013-09-09 11:22:00,
2013-09-09 07:42:00,60.0,56.0,30.04,SE,143,1.0,4.0,86,0.00,,,0.00,,2013-09-09 11:42:00,
2013-09-09 07:52:00,60.0,56.0,30.05,SSE,149,0.0,2.0,86,0.00,,,0.00,,2013-09-09 11:52:00,
2013-09-09 08:12:00,60.0,56.0,30.05,SSE,148,0.0,2.0,86,0.00,,,0.00,,2013-09-09 12:12:00,
2013-09-09 08:22:00,61.0,56.0,30.05,SE,146,1.0,6.0,85,0.00,,,0.00,,2013-09-09 12:22:00,
2013-09-09 08:42:00,61.0,56.0,30.04,SE,142,0.0,3.0,84,0.00,,,0.00,,2013-09-09 12:42:00,
2013-09-09 08:52:00,61.0,56.0,30.04,SE,142,0.0,3.0,84,0.00,,,0.00,,2013-09-09 12:52:00,
2013-09-09 09:12:00,61.0,55.0,30.04,SE,138,1.0,3.0,81,0.00,,,0.00,,2013-09-09 13:12:00,
2013-09-09 09:22:00,62.0,56.0,30.04,SSE,148,1.0,4.0,82,0.00,,,0.00,,2013-09-09 13:22:00,
2013-09-09 09:42:00,61.0,56.0,30.03,SE,146,1.0,4.0,84,0.00,,,0.00,,2013-09-09 13:42:00,
2013-09-09 09:52:00,61.0,57.0,30.02,SE,144,1.0,4.0,86,0.00,,,0.00,,2013-09-09 13:52:00,
2013-09-09 10:12:00,62.0,58.0,30.03,North,0,0.0,0.0,86,0.00,,,0.00,,2013-09-09 14:12:00,
2013-09-09 10:22:00,62.0,58.0,30.03,North,0,0.0,0.0,86,0.00,,,0.00,,2013-09-09 14:22:00,
2013-09-09 10:42:00,63.0,58.0,30.03,SE,131,1.0,5.0,83,0.00,,,0.00,,2013-09-09 14:42:00,
2013-09-09 10:52:00,63.0,57.0,30.03,SE,145,3.0,6.0,82,0.00,,,0.00,,2013-09-09 14:52:00,
2013-09-09 11:02:00,63.0,57.0,30.03,SE,145,3.0,6.0,82,0.00,,,0.00,,2013-09-09 15:02:00,
2013-09-09 11:11:00,63.0,57.0,30.03,SE,145,3.0,6.0,82,0.00,,,0.00,,2013-09-09 15:11:00,
2013-09-09 11:22:00,63.0,58.0,30.03,SE,133,1.0,2.0,83,0.00,,,0.00,,2013-09-09 15:22:00,
2013-09-09 11:43:00,64.0,58.0,30.04,SE,145,0.0,3.0,82,0.00,,,0.00,,2013-09-09 15:43:00,
2013-09-09 11:53:00,64.0,59.0,30.05,SE,142,0.0,1.0,83,0.01,,,0.01,,2013-09-09 15:53:00,
2013-09-09 12:13:00,64.0,59.0,30.05,North,0,0.0,0.0,85,0.02,,,0.02,,2013-09-09 16:13:00,
2013-09-09 12:25:00,63.0,59.0,30.05,SE,129,0.0,1.0,88,0.02,,,0.02,,2013-09-09 16:25:00,
2013-09-09 12:43:00,62.0,59.0,30.03,SE,144,1.0,4.0,91,0.04,,,0.04,,2013-09-09 16:43:00,
2013-09-09 12:54:00,62.0,60.0,30.03,SSE,147,1.0,5.0,93,0.05,,,0.06,,2013-09-09 16:54:00,
2013-09-09 13:12:00,62.0,60.0,30.01,SE,146,1.0,3.0,94,0.06,,,0.08,,2013-09-09 17:12:00,
2013-09-09 13:23:00,62.0,61.0,30.01,SSE,147,3.0,7.0,95,0.07,,,0.09,,2013-09-09 17:23:00,
2013-09-09 13:53:00,63.0,62.0,29.99,SSE,153,2.0,6.0,96,0.06,,,0.11,,2013-09-09 17:53:00,
2013-09-09 14:13:00,63.0,62.0,29.98,SE,146,3.0,6.0,96,0.03,,,0.11,,2013-09-09 18:13:00,
2013-09-09 14:22:00,64.0,63.0,29.99,SE,138,1.0,4.0,96,0.02,,,0.11,,2013-09-09 18:22:00,
2013-09-09 14:52:00,66.0,65.0,29.99,SSE,147,1.0,3.0,96,0.00,,,0.11,,2013-09-09 18:52:00,
2013-09-09 15:12:00,67.0,65.0,29.98,SE,135,1.0,4.0,93,0.00,,,0.11,,2013-09-09 19:12:00,
2013-09-09 15:22:00,67.0,65.0,29.98,SE,135,1.0,4.0,93,0.00,,,0.11,,2013-09-09 19:22:00,
2013-09-09 15:43:00,69.0,67.0,29.97,SE,146,2.0,4.0,92,0.00,,,0.11,,2013-09-09 19:43:00,
2013-09-09 15:52:00,70.0,67.0,29.96,SE,141,3.0,6.0,91,0.00,,,0.11,,2013-09-09 19:52:00,
2013-09-09 16:12:00,71.0,67.0,29.95,SE,138,2.0,6.0,88,0.00,,,0.11,,2013-09-09 20:12:00,
2013-09-09 16:22:00,71.0,68.0,29.95,SE,133,3.0,6.0,89,0.00,,,0.11,,2013-09-09 20:22:00,
2013-09-09 16:42:00,73.0,69.0,29.95,SE,145,2.0,6.0,88,0.00,,,0.11,,2013-09-09 20:42:00,
2013-09-09 16:53:00,73.0,69.0,29.95,SSE,150,2.0,5.0,86,0.00,,,0.11,,2013-09-09 20:53:00,
2013-09-09 17:02:00,73.0,69.0,29.95,SSE,150,2.0,5.0,86,0.00,,,0.11,,2013-09-09 21:02:00,
2013-09-09 17:12:00,73.0,69.0,29.95,SSE,150,2.0,5.0,86,0.00,,,0.11,,2013-09-09 21:12:00,
2013-09-09 17:22:00,74.0,70.0,29.94,SE,136,2.0,6.0,87,0.00,,,0.11,,2013-09-09 21:22:00,
2013-09-09 17:44:00,75.0,71.0,29.94,SE,126,2.0,8.0,86,0.00,,,0.11,,2013-09-09 21:44:00,
2013-09-09 17:54:00,75.0,71.0,29.94,SE,126,2.0,8.0,86,0.00,,,0.11,,2013-09-09 21:54:00,
2013-09-09 18:13:00,75.0,70.0,29.93,ESE,121,3.0,8.0,85,0.00,,,0.11,,2013-09-09 22:13:00,
2013-09-09 18:24:00,75.0,70.0,29.93,SE,132,4.0,8.0,84,0.00,,,0.11,,2013-09-09 22:24:00,
2013-09-09 18:34:00,75.0,70.0,29.93,SE,132,4.0,8.0,84,0.00,,,0.11,,2013-09-09 22:34:00,
2013-09-09 18:43:00,75.0,70.0,29.93,SE,132,4.0,8.0,84,0.00,,,0.11,,2013-09-09 22:43:00,
2013-09-09 18:54:00,75.0,70.0,29.93,SE,135,3.0,7.0,85,0.00,,,0.11,,2013-09-09 22:54:00,
2013-09-09 19:12:00,75.0,70.0,29.92,SE,143,3.0,9.0,85,0.00,,,0.11,,2013-09-09 23:12:00,
2013-09-09 19:22:00,74.0,69.0,29.92,SE,140,2.0,5.0,85,0.00,,,0.11,,2013-09-09 23:22:00,
2013-09-09 19:34:00,74.0,69.0,29.92,SE,140,2.0,5.0,85,0.00,,,0.11,,2013-09-09 23:34:00,
2013-09-09 19:42:00,74.0,69.0,29.92,SE,140,2.0,5.0,85,0.00,,,0.11,,2013-09-09 23:42:00,
2013-09-09 19:52:00,73.0,70.0,29.91,SE,143,2.0,6.0,89,0.00,,,0.11,,2013-09-09 23:52:00,
2013-09-09 20:02:00,73.0,70.0,29.91,SE,143,2.0,6.0,89,0.00,,,0.11,,2013-09-10 00:02:00,
2013-09-09 20:12:00,73.0,70.0,29.91,SE,143,2.0,6.0,89,0.00,,,0.11,,2013-09-10 00:12:00,
2013-09-09 20:22:00,71.0,68.0,29.91,SE,144,1.0,3.0,91,0.00,,,0.11,,2013-09-10 00:22:00,
2013-09-09 20:42:00,70.0,68.0,29.92,SE,144,1.0,3.0,93,0.00,,,0.11,,2013-09-10 00:42:00,
2013-09-09 20:52:00,70.0,68.0,29.92,SE,144,1.0,3.0,93,0.00,,,0.11,,2013-09-10 00:52:00,
2013-09-09 21:11:00,70.0,68.0,29.93,SE,142,1.0,4.0,94,0.00,,,0.11,,2013-09-10 01:11:00,
2013-09-09 21:21:00,70.0,68.0,29.93,SE,142,1.0,4.0,94,0.00,,,0.11,,2013-09-10 01:21:00,
2013-09-09 21:42:00,70.0,68.0,29.93,SE,137,0.0,2.0,95,0.00,,,0.11,,2013-09-10 01:42:00,
2013-09-09 21:53:00,69.0,68.0,29.93,SE,141,1.0,4.0,95,0.00,,,0.11,,2013-09-10 01:53:00,
2013-09-09 22:12:00,69.0,68.0,29.93,SE,141,1.0,4.0,95,0.00,,,0.11,,2013-09-10 02:12:00,
2013-09-09 22:22:00,69.0,68.0,29.93,SE,141,1.0,4.0,95,0.00,,,0.11,,2013-09-10 02:22:00,
2013-09-09 22:42:00,69.0,68.0,29.93,SSE,147,2.0,5.0,95,0.00,,,0.11,,2013-09-10 02:42:00,
2013-09-09 22:52:00,69.0,68.0,29.92,SSE,149,2.0,4.0,95,0.00,,,0.11,,2013-09-10 02:52:00,
2013-09-09 23:12:00,69.0,68.0,29.93,SE,145,1.0,5.0,95,0.00,,,0.11,,2013-09-10 03:12:00,
2013-09-09 23:22:00,68.0,67.0,29.92,SE,144,1.0,3.0,95,0.00,,,0.11,,2013-09-10 03:22:00,
2013-09-09 23:55:00,68.0,67.0,29.92,SE,146,1.0,3.0,96,0.00,,,0.11,,2013-09-10 03:55:00,